[[{"header":{"parameterUnit":"m.s-1","parameterCategory":1,"la1":30.2991,"la2":30.254,"lo1":-89.0895,"lo2":-89.0444,"dy":0.0017,"dx":0.0017,"nx":28,"ny":28,"refTime":"2024-07-27T03:00:00:Z","depth":0,"parameterNumber":2,"parameterNumberName":"U-component_of_WINDS"},"data":[0,0,0,0,0,0,0,0,0,0,0,0,0,0,0,0,0,0,0,0,0,0,0,0,0,0,0,0,0,0,0,0,0,0,0,0,0,0,0,0,0,0,0,0,0,0,0,0,0,0,0,0,0,0,0,0,0,0,1.2077,1.2078,0,1.2163,1.2164,1.2165,1.2153,1.2152,1.2151,1.2149,1.2239,1.2243,1.2246,0,0,0,0,0,0,0,0,0,0,0,0,0,1.1904,1.1908,1.2077,1.2078,1.2079,1.2163,1.2164,1.2165,1.2154,1.2152,1.215,1.2149,1.2238,1.2242,1.2247,0,0,0,0,0,0,0,0,0,0,0,0,0,1.1984,1.1909,1.2077,1.2084,1.2085,1.2162,1.2164,1.2165,1.2154,1.2152,1.215,1.2148,1.2236,1.2242,1.2247,1.2324,0,0,1.2264,1.2267,0,0,0,0,0,0,0,0,1.1979,1.199,1.2082,1.2083,1.2085,1.2145,1.2136,1.2219,1.2155,1.2128,1.2149,1.2147,1.221,1.2217,1.2238,1.2328,1.2332,1.2265,1.2268,1.2271,1.2272,0,0,0,0,0,0,0,1.1974,1.1986,1.2111,1.2083,1.2085,1.2082,1.2091,1.2151,1.218,1.213,1.213,1.214,1.221,1.2233,1.224,1.2333,1.2265,1.227,1.2273,1.2275,1.2487,1.249,0,0,0,0,0,0,1.1966,1.1982,1.2109,1.2114,1.2026,1.2087,1.2097,1.2128,1.2179,1.2185,1.2141,1.2139,1.2224,1.2234,1.2243,1.2334,1.2271,1.2276,1.2279,1.2485,1.2488,1.249,0,0,0,0,0,0,1.1963,1.1978,1.2105,1.2048,1.2064,1.2093,1.2127,1.2131,1.2153,1.2188,1.2193,1.2159,1.2223,1.2235,1.2303,1.2337,1.2278,1.2283,1.2482,1.2486,1.2489,1.2518,0,0,0,0,0,0,1.1958,1.1977,1.2006,1.2048,1.2067,1.2164,1.213,1.2134,1.2163,1.216,1.2206,1.2211,1.2222,1.2295,1.2309,1.2344,1.2288,1.2479,1.2484,1.2488,1.2514,1.2522,1.2528,0,0,0,0,0,1.1952,1.2012,1.2008,1.2023,1.2104,1.2166,1.2176,1.2187,1.2166,1.2195,1.2217,1.221,1.2331,1.2302,1.2317,1.2355,1.2477,1.2483,1.2488,1.251,1.252,1.2528,0,0,0,0,0,0,1.1975,1.2018,1.2014,1.2089,1.2124,1.2164,1.2202,1.2198,1.2239,1.2235,1.2248,1.2258,1.2326,1.2347,1.2314,1.243,1.2401,1.241,1.2413,1.2423,1.243,1.2423,1.2292,0,0,0,0,0,1.1988,1.2034,1.207,1.2133,1.215,1.2173,1.22,1.2205,1.2242,1.2256,1.2283,1.2319,1.2365,1.2395,1.244,1.2517,1.2525,1.255,1.2557,1.2563,1.257,1.2609,1.262,1.2507,1.2507,1.2507,0,0,1.2017,1.2047,1.2075,1.2138,1.2165,1.2212,1.2185,1.2237,1.2271,1.2265,1.2329,1.235,1.2391,1.2462,1.2496,1.2482,1.2603,1.2569,1.2574,1.2578,1.2616,1.2626,1.2636,1.2511,1.251,1.251,0,0,1.2094,1.2121,1.2176,1.2203,1.2244,1.2258,1.2271,1.2311,1.2324,1.2388,1.2383,1.2425,1.2505,1.2533,1.2558,1.2642,1.2636,1.2656,1.2694,1.2732,1.2741,1.2749,1.2777,1.2787,1.2663,1.2663,1.2663,0,1.2125,1.2195,1.2204,1.2255,1.2282,1.2277,1.2331,1.2357,1.2411,1.243,1.2414,1.2512,1.2539,1.2616,1.2636,1.2657,1.2671,1.2651,1.2739,1.2747,1.2755,1.2781,1.2792,1.2665,1.2665,1.2665,1.2665,0,1.223,1.2278,1.2317,1.2367,1.2399,1.2451,1.2468,1.2499,1.2501,1.2516,1.2581,1.2614,1.2663,1.2682,1.2686,1.2759,1.2749,1.2736,1.2708,1.2767,1.2792,1.2803,1.2668,1.2667,1.2667,1.2666,0,0,1.2324,1.2376,1.2391,1.2412,1.2455,1.2493,1.2544,1.2591,1.2616,1.2653,1.2696,1.2762,1.2749,1.2778,1.2784,1.2818,1.2879,1.2801,1.2802,1.2812,1.2959,1.2967,1.2979,1.2876,1.2878,1.2879,1.2955,0,1.2403,1.2493,1.2502,1.2583,1.2626,1.262,1.2665,1.2696,1.2712,1.2751,1.2768,1.2814,1.2795,1.2811,1.2845,1.2865,1.2909,1.286,1.2915,1.2916,1.2903,1.2993,1.3002,1.3072,1.2965,1.2967,1.2968,0,1.2508,1.2545,1.2629,1.2664,1.2682,1.2722,1.2764,1.2802,1.2837,1.2846,1.2876,1.2877,1.2929,1.2899,1.297,1.2936,1.2959,1.2972,1.2975,1.298,1.2945,1.2998,1.3095,1.3105,1.2984,1.2983,1.2982,0,1.2565,1.2637,1.2696,1.2714,1.2757,1.2784,1.2804,1.2836,1.2863,1.29,1.2917,1.2961,1.2984,1.3017,1.303,1.3007,1.31,1.3071,1.3107,1.3107,1.3127,1.3125,1.3227,1.3144,1.3144,1.3144,1.3143,0,1.2651,1.2703,1.2721,1.2758,1.2814,1.2824,1.288,1.2897,1.2926,1.2965,1.2963,1.3,1.3015,1.3054,1.3064,1.312,1.3131,1.3139,1.3141,1.3138,1.3137,1.3153,1.3148,1.3146,1.3146,1.3145,1.3145,0,1.2725,1.274,1.2803,1.2837,1.2847,1.2887,1.2916,1.2951,1.2965,1.3014,1.3026,1.3048,1.3094,1.3109,1.3165,1.3172,1.3236,1.3235,1.3224,1.3224,1.3259,1.3255,1.3374,1.3389,1.3297,1.3298,1.3299,0,1.2779,1.2818,1.2855,1.288,1.2899,1.2941,1.2967,1.2978,1.3005,1.3046,1.3075,1.312,1.3156,1.3229,1.325,1.3292,1.3291,1.3329,1.3297,1.3292,1.3289,1.3286,1.3289,1.3335,1.3336,1.3337,1.3337,0,1.2871,1.2876,1.2914,1.2954,1.2985,1.3017,1.3048,1.3069,1.3084,1.3115,1.316,1.3188,1.3243,1.3287,1.3329,1.3349,1.3345,1.3347,1.3357,1.3355,1.3346,1.3349,1.3239,1.3344,1.3344,1.3343,1.3343,1.3342,1.2935,1.2968,1.2999,1.304,1.3064,1.3093,1.3126,1.3143,1.3181,1.3226,1.323,1.3278,1.3309,1.3366,1.3387,1.3425,1.3414,1.343,1.3433,1.3437,1.3438,1.3341,1.3433,1.3433,1.3433,1.3432,1.3432,0,1.3026,1.3045,1.3083,1.3125,1.3157,1.315,1.3183,1.321,1.3253,1.3282,1.3317,1.3368,1.3409,1.3433,1.3475,1.35,1.35,1.3511,1.3508,1.3513,1.3446,1.3432,1.3511,1.3511,1.3511,1.3511,1.3511,1.351,1.3077,1.3132,1.3139,1.3205,1.3224,1.327,1.329,1.3315,1.3338,1.3395,1.3429,1.3444,1.347,1.3513,1.3551,1.3557,1.3571,1.3584,1.3588,1.3526,1.3518,1.351,1.3497,1.3587,1.3587,1.3651,1.3652,1.3652]},{"header":{"parameterUnit":"m.s-1","parameterCategory":1,"la1":30.2991,"la2":30.254,"lo1":-89.0895,"lo2":-89.0444,"dy":0.0017,"dx":0.0017,"nx":28,"ny":28,"refTime":"2024-07-27T03:00:00:Z","depth":0,"parameterNumber":3,"parameterNumberName":"V-component_of_WINDS"},"data":[0,0,0,0,0,0,0,0,0,0,0,0,0,0,0,0,0,0,0,0,0,0,0,0,0,0,0,0,0,0,0,0,0,0,0,0,0,0,0,0,0,0,0,0,0,0,0,0,0,0,0,0,0,0,0,0,0,0,1.8026,1.8028,0,1.8167,1.8169,1.817,1.8207,1.8206,1.8205,1.8204,1.8349,1.8353,1.8358,0,0,0,0,0,0,0,0,0,0,0,0,0,1.7787,1.7791,1.8026,1.8028,1.803,1.8167,1.8169,1.8171,1.8207,1.8206,1.8205,1.8204,1.8347,1.8353,1.8358,0,0,0,0,0,0,0,0,0,0,0,0,0,1.7905,1.7792,1.8026,1.8064,1.8069,1.8166,1.8169,1.8171,1.8207,1.8206,1.8205,1.8203,1.8345,1.8352,1.8359,1.8428,0,0,1.838,1.8383,0,0,0,0,0,0,0,0,1.7899,1.7914,1.8057,1.8062,1.8067,1.8168,1.8137,1.8257,1.8208,1.8155,1.8204,1.8203,1.829,1.8301,1.833,1.8435,1.8441,1.8381,1.8385,1.8388,1.839,0,0,0,0,0,0,0,1.789,1.7908,1.8082,1.8059,1.8065,1.8074,1.8089,1.816,1.8228,1.8159,1.8162,1.8178,1.8292,1.8324,1.8334,1.8443,1.8381,1.8387,1.8391,1.8394,1.8609,1.861,0,0,0,0,0,0,1.7876,1.7901,1.8077,1.8086,1.7978,1.8079,1.8097,1.8137,1.8227,1.824,1.8179,1.818,1.8312,1.8326,1.8339,1.8425,1.8388,1.8395,1.8399,1.8607,1.8609,1.8611,0,0,0,0,0,0,1.787,1.7891,1.8072,1.7995,1.8018,1.8085,1.813,1.8141,1.8172,1.8242,1.8254,1.8199,1.8312,1.8329,1.8405,1.843,1.8398,1.8404,1.8605,1.8608,1.861,1.8597,0,0,0,0,0,0,1.7863,1.7889,1.7916,1.7995,1.8022,1.8136,1.8132,1.8144,1.8184,1.8185,1.8264,1.8276,1.8312,1.8394,1.8412,1.8439,1.841,1.8603,1.8606,1.8609,1.8595,1.8598,1.8601,0,0,0,0,0,1.7855,1.7908,1.7918,1.7939,1.8058,1.8137,1.8153,1.8194,1.8186,1.8213,1.8258,1.8273,1.8424,1.8402,1.8422,1.8452,1.8602,1.8606,1.8609,1.8594,1.8598,1.8601,0,0,0,0,0,0,1.7831,1.7919,1.7931,1.8011,1.8066,1.8143,1.818,1.8196,1.8255,1.8254,1.8302,1.832,1.8392,1.8429,1.8403,1.8522,1.8513,1.8521,1.8495,1.8499,1.8502,1.8491,1.8415,0,0,0,0,0,1.7835,1.7892,1.7966,1.8029,1.8056,1.8113,1.8149,1.8175,1.8235,1.8258,1.8309,1.8366,1.8426,1.8465,1.8524,1.86,1.8617,1.8631,1.8633,1.8635,1.8641,1.8683,1.8689,1.8622,1.8622,1.8622,0,0,1.7844,1.7899,1.7933,1.8026,1.8072,1.8129,1.8133,1.8194,1.8237,1.8268,1.8342,1.8381,1.8447,1.8523,1.8559,1.8556,1.8663,1.864,1.8641,1.8646,1.8687,1.8693,1.8699,1.8624,1.8624,1.8624,0,0,1.789,1.7938,1.7995,1.804,1.811,1.8147,1.816,1.8234,1.8261,1.8336,1.836,1.8411,1.8515,1.856,1.8597,1.8657,1.8673,1.8675,1.869,1.873,1.8735,1.874,1.876,1.8767,1.8681,1.8681,1.8681,0,1.7893,1.7981,1.8022,1.8082,1.8121,1.8151,1.8209,1.8251,1.8336,1.8362,1.8358,1.8487,1.8534,1.862,1.8634,1.8663,1.8679,1.8667,1.8731,1.8736,1.8741,1.8761,1.8769,1.8681,1.8681,1.8681,1.8681,0,1.7979,1.804,1.8078,1.8158,1.8202,1.826,1.831,1.8349,1.8371,1.8408,1.8483,1.854,1.861,1.8632,1.8655,1.8721,1.8717,1.8721,1.8714,1.8747,1.8766,1.8774,1.868,1.868,1.868,1.868,0,0,1.8016,1.8117,1.813,1.8166,1.8243,1.8291,1.8349,1.8418,1.845,1.8507,1.8557,1.8642,1.8645,1.8687,1.8715,1.8749,1.8792,1.8749,1.8751,1.8754,1.8866,1.8863,1.8871,1.8802,1.8804,1.8805,1.8861,0,1.8071,1.8177,1.8215,1.8302,1.8357,1.8385,1.8436,1.8488,1.8524,1.8576,1.8615,1.8674,1.8675,1.87,1.8736,1.8779,1.8815,1.8775,1.8848,1.885,1.883,1.8881,1.8878,1.8928,1.8869,1.887,1.8871,0,1.8149,1.8206,1.8299,1.8367,1.8392,1.8437,1.8501,1.8551,1.861,1.8633,1.8678,1.8703,1.8764,1.8752,1.8836,1.8809,1.884,1.8866,1.8869,1.8877,1.8862,1.889,1.8945,1.8952,1.8883,1.8882,1.8882,0,1.8165,1.8265,1.8333,1.8363,1.8445,1.8475,1.8511,1.8569,1.8607,1.8663,1.8688,1.8751,1.8785,1.8833,1.8873,1.8861,1.8953,1.8945,1.8973,1.8972,1.8992,1.899,1.9052,1.9013,1.9013,1.9013,1.9012,0,1.8222,1.8277,1.8341,1.8382,1.8444,1.8487,1.8547,1.8584,1.8635,1.8683,1.8711,1.8756,1.8807,1.8858,1.889,1.8954,1.897,1.8989,1.8997,1.8987,1.8984,1.9008,1.9006,1.9015,1.9014,1.9014,1.9013,0,1.8251,1.8296,1.8371,1.8442,1.846,1.8503,1.8563,1.8604,1.864,1.8701,1.8717,1.8774,1.8835,1.888,1.896,1.8981,1.9049,1.9057,1.9029,1.9033,1.9059,1.9055,1.9138,1.9151,1.9103,1.9104,1.9104,0,1.8284,1.8327,1.8402,1.8436,1.8471,1.8526,1.8565,1.8607,1.8646,1.8716,1.8748,1.8811,1.8864,1.896,1.9008,1.9069,1.9078,1.9103,1.9088,1.9075,1.9078,1.9074,1.9078,1.9105,1.9105,1.9106,1.9106,0,1.8338,1.8358,1.8412,1.8474,1.8518,1.8569,1.862,1.8646,1.8698,1.874,1.8803,1.8844,1.8924,1.8986,1.9051,1.9087,1.9104,1.911,1.912,1.911,1.9091,1.91,1.9035,1.9108,1.9108,1.9108,1.9108,1.9107,1.837,1.8409,1.8467,1.8526,1.8568,1.8615,1.8656,1.8696,1.8749,1.8818,1.8839,1.8904,1.896,1.9049,1.9085,1.9136,1.9135,1.915,1.9153,1.9156,1.9155,1.9083,1.9148,1.9148,1.9148,1.9148,1.9148,0,1.8425,1.8463,1.8517,1.8587,1.8632,1.8644,1.8701,1.8738,1.8795,1.8846,1.8897,1.8968,1.9027,1.9079,1.9141,1.9171,1.9181,1.9186,1.9184,1.9192,1.9153,1.9138,1.9177,1.9177,1.9177,1.9177,1.9177,1.9177,1.8459,1.8524,1.855,1.8636,1.8674,1.8737,1.8768,1.881,1.8851,1.8929,1.8978,1.9011,1.9062,1.9127,1.9182,1.9196,1.9217,1.922,1.9235,1.9198,1.9195,1.9191,1.9177,1.9224,1.9224,1.927,1.9271,1.9271]}]]